Location: Sternwarte_Laufen
(47.9344°N, 12.9346°E)
Time: 10:50:46
(UTC+01:00)

Tiangong 2 - Visible Passes

Search period start: 17 February 2019 00:00
Search period end: 27 February 2019 00:00
Orbit: 381 x 390 km, 42.8° (Epoch: 16 February)

Date Brightness Start Highest point End Pass type
(mag) Time Alt. Az. Time Alt. Az. Time Alt. Az.
17 Feb 3.0 19:00:39 10° WSW 19:03:13 22° SSW 19:04:43 16° SSE visible
18 Feb 3.8 19:38:59 10° SW 19:40:17 12° SSW 19:40:44 12° SSW visible
19 Feb 3.6 18:39:07 10° WSW 18:41:17 17° SSW 18:43:27 10° SSE visible
21 Feb 4.0 18:18:00 10° SW 18:19:17 12° SSW 18:20:34 10° S visible
